Other Surface Observations
Issued by NWS Charleston, SC

Home | Current Version | Previous Version | Text Only | Print | Product List | Glossary On
Versions: 1 2 3 4 5 6 7 8 9 10 11 12 13 14 15 16 17 18 19 20 21 22 23 24 25 26 27 28 29 30 31 32 33 34 35 36 37 38 39 40 41 42 43 44 45 46 47 48 49 50
000
SXUS52 KCHS 041327
OSOCHS

MARINE OBSERVATIONS
NATIONAL WEATHER SERVICE CHARLESTON SC
900 AM EDT MON MAY 04 2015

...DOWNTOWN CHARLESTON AND HARBOR...

CITY           SKY/WX    TMP DP  RH WIND       PRES   REMARKS
WATERFRONT PRK   N/A     70 N/A N/A N3          N/A
FORT JOHNSON   NOT AVBL

...LAKE MOULTRIE...

CITY           SKY/WX    TMP DP  RH WIND       PRES   REMARKS
PINOPOLIS      NOT AVBL

...LAKE AND SUPPLEMENTAL COASTAL OBSERVATIONS...

STATION/POSITION TIME  TEMP    WIND        PRES    WAVE   SWELL
                       AIR SEA DIR/SP/G            HT/PER HT/PER/DIR
                 (UTC) (F)     (DEG/KT/KT) (MB)    (FT/S) (FT/S/D)
FORT PULASKI     1200   68 70   30/  4/  5 1025.9R
SAPELO ISLAND    1300   72      40/  5     1025.0S
UPR LAKE MARION  NOT AVBL
WINYAH BAY       1245   72        CALM     1026.0R
LAKE MURRAY      1300   67     200/  3/  8 1026.1R
ACE BASIN NERRS  NOT AVBL


...C-MAN AND BUOY OBSERVATIONS...

STATION/POSITION TIME  TEMP    WIND        PRES    WAVE   SWELL
                       AIR SEA DIR/SP/G            HT/PER HT/PER/DIR
                 (UTC) (F)     (DEG/KT/KT) (MB)    (FT/S) (FT/S/D)
BUOY 41004       1250   73 74   80/  8/ 10 1026.0R   3/10   3/10
BUOY 41008       1250   71 70   60/  4/  6 1025.5R   3/11   2/ 60/11
FOLLY BEACH CMAN 1300   70      30/  3/  4 1026.5R
CAPERS NS BUOY   1208   72      CALM  /  4 1026.0R
FRIPP NS BUOY    1200   70      50/  6/  8 1024.8R
5E ST. MARYS GA  1221      71                N/A     2/12   2/ 80/12


STATION/POSITION TIME  TEMP    WIND        PRES    WAVE   SWELL
                       AIR SEA DIR/SP/G            HT/PER HT/PER/DIR
                 (UTC) (F)     (DEG/KT/KT) (MB)    (FT/S) (FT/S/D)
FRYING PAN BUOY  1250   73 72  180/  6/  8 1027.6R   3/ 9   3/ 70/ 9
BUOY 41025       1250   66     310/  6/  8 1027.1R   4/10   3/ 60/10
CAPE LOOKOUT NC  1300   69      80/  2/  4 1027.1R
BUOY 41002       1250   68 70   60/ 14/ 17 1027.0R   6/11   5/ 30/11
BUOY 41010       1220   73 78   80/ 14/ 17 1023.3R
ST AUGUSTINE FL  1300   71 71   30/ 14/ 16 1024.9R

$$



USA.gov is the U.S. government's official web portal to all federal, state and local government web resources and services.